Hourly Data Report for September 24, 2017

All times are specified in Local Standard Time (LST). Add 1 hour to adjust for Daylight Saving Time where and when it is observed.

BATHURST A
NEW BRUNSWICK

47°37'47.000" N
65°44'20.000" W
58.80 m
8100505
71574
ZBF

Download Data

Hourly Data (September 2017)
Hourly Data Report for September 24, 2017
Temp Definition
°C
Dew Point Temp Definition
°C
Rel Hum Definition
%
Wind Dir Definition
10's deg

Wind Spd Definition
km/h
Visibility Definition
km
Stn Press Definition
kPa
Hmdx Definition


Wind Chill Definition


Weather Definition


TIME
00:00 Legend Double Dagger 10.9 9.6 91 36 2 24.1 101.12     LegendNANA
01:00 Legend Double Dagger 9.7 9.1 96 19 4 24.1 101.12     LegendNANA
02:00 Legend Double Dagger 8.6 8.1 96 25 4 24.1 101.09     Clear
03:00 Legend Double Dagger 8.1 7.5 96 27 4 24.1 101.03     LegendNANA
04:00 Legend Double Dagger 8.2 7.6 95 24 5 24.1 100.98     LegendNANA
05:00 Legend Double Dagger 10.0 8.9 93 21 5 24.1 100.95     Mostly Cloudy
06:00 Legend Double Dagger 10.7 9.5 92 20 4 24.1 100.93     LegendNANA
07:00 Legend Double Dagger 11.0 10.2 95 12 5 16.1 100.93     LegendNANA
08:00 Legend Double Dagger 11.8 11.2 96 36 4 8.1 101.04     Fog
09:00 Legend Double Dagger 12.6 11.9 96 35 4 8.1 100.97     Fog
10:00 Legend Double Dagger 13.6 12.5 93 24 6 12.9 100.91     LegendNANA
11:00 Legend Double Dagger 15.3 13.2 87 20 5 12.9 100.81     Cloudy
12:00 Legend Double Dagger 16.6 13.8 84 1 4 16.1 100.84     LegendNANA
13:00 Legend Double Dagger 17.8 13.5 76 36 2 24.1 100.80     LegendNANA
14:00 Legend Double Dagger 18.3 14.8 80 7 7 24.1 100.76     Mostly Cloudy
15:00 Legend Double Dagger 17.0 14.3 84 2 11 24.1 100.80     LegendNANA
16:00 Legend Double Dagger 16.1 13.8 87 5 13 24.1 100.83     LegendNANA
17:00 Legend Double Dagger 15.0 13.5 91 2 6 16.1 100.92     Rain Showers
18:00 Legend Double Dagger 14.8 13.2 90 4 8 24.1 100.97     LegendNANA
19:00 Legend Double Dagger 14.2 13.2 94 7 4 24.1 100.99     LegendNANA
20:00 Legend Double Dagger 12.9 12.3 96 36 3 16.1 101.05     Clear
21:00 Legend Double Dagger 12.1 11.8 98 36 2 8.1 101.08     Fog
22:00 Legend Double Dagger 10.7 10.4 98 23 3 9.7 101.08     Fog
23:00 Legend Double Dagger 11.0 10.6 97 36 1 9.7 101.12     Fog

Notes on Data Quality.

Legend

  • E = Estimated
  • M = Missing
  • NA = Not Available
  • ‡ = Partner data that is not subject to review by the National Climate Archives
Date modified: